DW6761 Weather Reports


time (UTC)temp
F
wind
direction
speed
knots
gust
knots
rain 1hr
in
rain 24hr
in
rain mn
in
humidity
%
barometer
mb
20260506131553 47 115 0.0 0.0 0.00 0.00 0.00 97 1014.5
20260506130045 47 127 0.0 0.0 0.00 0.00 0.00 97 1014.5
20260506124517 47 123 0.0 0.0 0.00 0.00 0.00 97 1014.4
20260506123056 47 115 0.0 0.0 0.00 0.00 0.00 97 1014.3
20260506121523 47 90 0.0 0.0 0.00 0.00 0.00 97 1014.1
20260506120106 47 169 0.9 0.0 0.00 0.00 0.00 96 1014.0
20260506114647 48 117 0.9 0.0 0.00 0.00 0.00 96 1013.8
20260506113004 48 144 0.0 0.0 0.00 0.00 0.00 97 1013.7
20260506111554 48 111 0.0 0.0 0.00 0.00 0.00 96 1013.8
20260506110057 48 126 0.0 0.0 0.00 0.00 0.00 96 1013.7
20260506104637 48 114 0.9 0.0 0.00 0.00 0.00 96 1013.7
20260506103129 48 120 0.9 0.0 0.00 0.00 0.00 97 1013.6
20260506101528 48 136 0.9 0.0 0.00 0.00 0.00 96 1013.4
20260506100126 49 134 0.9 0.0 0.00 0.00 0.00 96 1013.4
20260506094533 49 119 0.0 0.0 0.00 0.00 0.00 96 1013.2
20260506093027 50 121 0.0 0.0 0.00 0.00 0.00 97 1012.9
20260506091613 50 136 0.0 0.0 0.00 0.00 0.00 97 1012.9
20260506090127 50 132 0.0 0.0 0.00 0.00 0.00 97 1012.6
20260506084547 50 149 0.9 0.0 0.00 0.00 0.00 96 1012.5
20260506083018 50 140 0.9 0.0 0.00 0.00 0.00 96 1012.5
20260506081523 50 131 0.9 0.0 0.00 0.00 0.00 96 1012.4
20260506073113 51 159 0.0 0.0 0.00 0.00 0.00 97 1012.2
20260506071629 51 171 0.0 0.0 0.00 0.00 0.00 97 1012.0
20260506070126 51 202 0.0 0.0 0.00 0.00 0.00 97 1012.0
20260506061547 50 171 0.0 0.0 0.00 0.00 0.00 96 1011.8
20260506044519 50 237 0.0 0.0 0.00 0.00 0.00 96 1011.8
20260506043105 50 226 0.0 0.0 0.00 0.00 0.00 96 1011.6
20260506041631 50 224 0.0 0.0 0.00 0.00 0.00 96 1011.7
20260506040006 50 219 0.0 0.0 0.00 0.00 0.00 96 1011.7
20260506034531 50 227 0.0 0.0 0.00 0.00 0.00 96 1011.6
20260506033025 50 227 0.0 0.0 0.00 0.00 0.00 96 1011.6
20260506031525 51 215 0.0 0.0 0.00 0.00 0.00 96 1011.9
20260506030025 51 224 0.9 0.0 0.00 0.00 0.00 96 1012.0
20260506024643 51 244 0.0 0.0 0.00 0.00 0.00 96 1012.2
20260506023016 51 232 0.0 0.0 0.00 0.00 0.00 96 1012.3
20260506021645 51 235 0.0 0.0 0.00 0.00 0.00 96 1012.3
20260506020111 51 213 0.0 0.0 0.00 0.00 0.00 96 1012.5
20260506014534 51 222 0.0 0.0 0.00 0.00 0.00 95 1012.4
20260506013015 51 232 0.0 0.0 0.00 0.00 0.00 96 1012.7
20260506011635 51 217 0.0 0.0 0.00 0.00 0.00 95 1012.7
20260506010108 52 240 0.0 0.0 0.00 0.00 0.00 95 1012.7
20260506004608 52 244 0.0 0.0 0.00 0.00 0.00 95 1012.9
20260506003007 52 210 0.0 0.0 0.00 0.00 0.00 95 1013.1
20260506001512 52 215 0.0 0.0 0.00 0.00 0.00 95 1013.1
20260506000135 52 172 0.0 0.0 0.00 0.00 0.00 95 1013.2
20260505234536 53 218 0.0 0.0 0.00 0.00 0.00 95 1013.4
20260505233035 53 197 0.0 0.0 0.00 0.00 0.00 95 1013.5
20260505231636 53 213 0.0 0.0 0.00 0.00 0.00 95 1013.5
20260505230008 53 227 0.0 0.0 0.00 0.00 0.00 95 1013.5
20260505224519 53 203 0.0 0.0 0.00 0.00 0.00 95 1013.6
20260505223052 53 171 0.0 0.0 0.00 0.00 0.00 95 1013.7
20260505221522 53 194 0.0 0.0 0.00 0.00 0.00 94 1013.7
20260505220001 53 198 0.0 0.0 0.00 0.00 0.00 94 1013.9
20260505214621 53 178 0.0 0.0 0.00 0.00 0.00 94 1014.1
20260505213044 53 194 0.0 0.0 0.00 0.00 0.00 94 1014.1
20260505211619 53 194 0.0 0.0 0.00 0.00 0.00 94 1014.3
20260505210115 54 205 0.0 0.0 0.00 0.00 0.00 94 1014.2
20260505204622 54 203 0.0 0.0 0.00 0.00 0.00 94 1014.4
20260505203014 54 216 0.0 0.0 0.00 0.00 0.00 94 1014.4
20260505201503 54 204 0.0 0.0 0.00 0.00 0.00 93 1014.4
20260505200110 54 220 0.0 0.0 0.00 0.00 0.00 93 1014.4
20260505194516 54 216 0.0 0.0 0.00 0.00 0.00 93 1014.4
20260505193044 55 168 0.0 0.0 0.00 0.00 0.00 92 1014.5
20260505191622 55 209 0.0 0.0 0.00 0.00 0.00 92 1014.4
20260505190028 55 209 0.0 0.0 0.00 0.00 0.00 92 1014.4
20260505184520 55 192 0.0 0.0 0.00 0.00 0.00 91 1014.5
20260505183112 56 213 0.0 0.0 0.00 0.00 0.00 91 1014.5
20260505181526 56 197 0.0 0.0 0.00 0.00 0.00 90 1014.6
20260505180025 57 198 0.0 0.0 0.00 0.00 0.00 89 1014.5
20260505174502 57 165 0.0 0.0 0.00 0.00 0.00 89 1014.5
20260505173115 57 203 0.0 0.0 0.00 0.00 0.00 88 1014.6
20260505171628 57 177 0.0 0.0 0.00 0.00 0.00 88 1014.4
20260505170120 58 186 0.0 0.0 0.00 0.00 0.00 87 1014.5
20260505163057 58 147 0.0 0.0 0.00 0.00 0.00 87 1014.6
20260505161528 59 165 0.0 0.0 0.00 0.00 0.00 87 1014.6
20260505160109 59 253 0.0 0.0 0.00 0.00 0.00 87 1014.6
20260505153129 60 158 0.0 0.0 0.00 0.00 0.00 86 1014.8
20260505151523 60 177 0.0 0.0 0.00 0.00 0.00 85 1015.0